星链-31564 (STARLINK-31564 )

导读

STARLINK-31564是美国太空探索技术公司(SpaceX)于北京时间2024年4月17日8时发射的星链(Starlink)互联网通信卫星,属于Starlink Group 6系列批次。星链项目旨在构建全球卫星互联网星座,为全球范围提供宽带互联网接入服务,该卫星进一步扩充了星链星座在轨卫星规模,提升星座网络覆盖与服务能力。

Basic Information
目录编号:
59526
目录名称:
STARLINK-31564
国际标识:
2024-073R
轨道中心:
EARTH
卫星名称:
星链-31564
卫星全名:
星链-31564 (STARLINK-31564 )
卫星状态:
在轨 (已飞行788 天)
发射日期:
2024-04-17 UTC
国别 :
美国 (US)
星等 :
--
Orbit Information
数据来源 国际轨道数据 AOE轨道数据
星历时间 2026-06-13T23:24:13+0800
21小时前
查看轨道信息
2026-06-12T01:00:00+0800
2天前
查看轨道信息
半长轴 6861.18km 6861.197km
偏心率 0.0001935 0.000145
轨道倾角 43.012° 42.999°
近地点辐角 273.728° 239.379°
升交点赤经 135.842° 146.762°
平近点角 86.335° 275.424°
近地点 481.715km 482.065km
远地点 484.371km 484.055km
周期 94.267分钟 94.267分钟
每日圈数 15.275822 15.275764
Detailed Information
固有亮度:
5
最大亮度:
1.5
卫星平台:
Starlink v2.0 mini
覆盖范围:
全球
运营商:
太空探索技术公司
运营商所在国:
美国
制造商(研发单位):
太空探索技术公司
制造商所在国:
美国
使用方式:
暂无
Satellite Introduction
星链(Starlink)计划是由太空探索技术公司(SpaceX)提出的一个巨型低轨卫星互联网星座项目,计划在2019年至2024年间在太空搭建由约1.2万颗卫星组成的“星链”网络,其中1584颗将部署在地球上空550千米处的近地轨道,并从2020年开始工作。该卫星仍在工作。
2D Orbit Map
3D Orbit Map
Orbit Altitude Analysis Chart
Orbit Inclination Analysis Chart
Orbit Comprehensive Analysis Chart
View Comprehensive Chart